Time,TemperatureF,DewpointF,PressureIn,WindDirection,WindDirectionDegrees,WindSpeedMPH,WindSpeedGustMPH,Humidity,HourlyPrecipIn,Conditions,Clouds,dailyrainin,SoftwareType,DateUTC
2013-08-03 09:01:00,66.9,57.9,-100.00,North,-999,-999.0,-999.0,73,-99.99,,,2.36,meteohub,2013-08-03 13:01:00,
2013-08-03 09:07:00,67.1,58.1,-100.00,North,-999,-999.0,-999.0,73,-99.99,,,2.36,meteohub,2013-08-03 13:07:00,
2013-08-03 09:12:00,67.3,57.9,-100.00,North,-999,-999.0,-999.0,72,-99.99,,,2.36,meteohub,2013-08-03 13:12:00,
2013-08-03 09:16:00,67.5,57.7,30.12,North,-999,-999.0,-999.0,71,-99.99,,,2.36,meteohub,2013-08-03 13:16:00,
2013-08-03 09:22:00,67.6,57.6,30.12,North,-999,-999.0,-999.0,70,-99.99,,,2.36,meteohub,2013-08-03 13:22:00,
2013-08-03 09:27:00,68.2,57.6,30.12,North,-999,-999.0,-999.0,69,-99.99,,,2.36,meteohub,2013-08-03 13:27:00,
2013-08-03 09:32:00,68.5,57.6,30.14,North,-999,-999.0,-999.0,68,-99.99,,,2.36,meteohub,2013-08-03 13:32:00,
2013-08-03 09:37:00,68.5,57.2,30.14,North,-999,-999.0,-999.0,67,-99.99,,,2.36,meteohub,2013-08-03 13:37:00,
2013-08-03 09:42:00,68.4,56.1,30.15,North,-999,-999.0,-999.0,65,-99.99,,,2.36,meteohub,2013-08-03 13:42:00,
2013-08-03 09:47:00,68.4,55.8,30.11,North,-999,-999.0,-999.0,64,-99.99,,,2.36,meteohub,2013-08-03 13:47:00,
2013-08-03 09:52:00,68.5,56.3,30.11,North,-999,-999.0,-999.0,65,-99.99,,,2.36,meteohub,2013-08-03 13:52:00,
2013-08-03 09:57:00,68.5,56.3,30.11,North,-999,-999.0,-999.0,65,-99.99,,,2.36,meteohub,2013-08-03 13:57:00,
2013-08-03 10:02:00,68.7,56.1,30.11,North,-999,-999.0,-999.0,64,-99.99,,,2.36,meteohub,2013-08-03 14:02:00,
2013-08-03 10:07:00,68.7,56.5,30.11,North,-999,-999.0,-999.0,65,-99.99,,,2.36,meteohub,2013-08-03 14:07:00,
2013-08-03 10:12:00,68.9,55.8,30.11,North,-999,-999.0,-999.0,63,-99.99,,,2.36,meteohub,2013-08-03 14:12:00,
2013-08-03 10:17:00,69.6,55.6,-100.00,North,-999,-999.0,-999.0,61,-99.99,,,2.36,meteohub,2013-08-03 14:17:00,
2013-08-03 10:22:00,70.3,55.8,-100.00,North,-999,-999.0,-999.0,60,-99.99,,,2.36,meteohub,2013-08-03 14:22:00,
2013-08-03 10:27:00,70.5,55.0,-100.00,North,-999,-999.0,-999.0,58,-99.99,,,2.36,meteohub,2013-08-03 14:27:00,
2013-08-03 10:32:00,70.5,54.1,30.13,WNW,292,1.0,-999.0,56,-99.99,,,2.36,meteohub,2013-08-03 14:32:00,
2013-08-03 10:37:00,70.7,53.8,30.13,WNW,292,0.0,3.0,55,-99.99,,,2.36,meteohub,2013-08-03 14:37:00,
2013-08-03 10:42:00,70.9,52.9,30.13,SSW,202,0.0,3.0,53,-99.99,,,2.36,meteohub,2013-08-03 14:42:00,
2013-08-03 10:47:00,71.6,54.1,30.12,NNW,338,2.0,3.0,54,-99.99,,,2.36,meteohub,2013-08-03 14:47:00,
2013-08-03 10:52:00,73.4,56.3,30.11,NNW,338,3.0,4.0,55,-99.99,,,2.36,meteohub,2013-08-03 14:52:00,
2013-08-03 10:57:00,74.3,55.6,30.10,NNE,22,3.0,4.0,52,-99.99,,,2.36,meteohub,2013-08-03 14:57:00,
2013-08-03 11:02:00,75.2,53.1,30.10,West,270,2.0,4.0,46,-99.99,,,2.36,meteohub,2013-08-03 15:02:00,
2013-08-03 11:07:00,76.5,54.7,30.09,ENE,68,2.0,6.0,47,-99.99,,,2.36,meteohub,2013-08-03 15:07:00,
2013-08-03 11:12:00,76.8,53.2,30.09,NNW,338,3.0,6.0,44,-99.99,,,2.36,meteohub,2013-08-03 15:12:00,
2013-08-03 11:17:00,77.2,51.6,30.08,WNW,292,4.0,6.0,41,-99.99,,,2.36,meteohub,2013-08-03 15:17:00,
2013-08-03 11:22:00,77.4,52.5,30.08,SSW,202,1.0,4.0,42,-99.99,,,2.36,meteohub,2013-08-03 15:22:00,
2013-08-03 11:27:00,77.9,50.2,30.04,North,0,6.0,6.0,38,-99.99,,,2.36,meteohub,2013-08-03 15:27:00,
2013-08-03 11:32:00,76.8,47.8,30.05,North,0,2.0,6.0,36,-99.99,,,2.36,meteohub,2013-08-03 15:32:00,
2013-08-03 11:37:00,77.9,50.9,30.04,WNW,292,2.0,6.0,39,-99.99,,,2.36,meteohub,2013-08-03 15:37:00,
2013-08-03 11:43:00,78.6,52.3,30.04,WNW,292,2.0,6.0,40,-99.99,,,2.36,meteohub,2013-08-03 15:43:00,
2013-08-03 11:48:00,78.6,49.5,30.04,North,0,3.0,6.0,36,-99.99,,,2.36,meteohub,2013-08-03 15:48:00,
2013-08-03 11:53:00,78.6,50.2,30.04,WNW,292,4.0,7.0,37,-99.99,,,2.36,meteohub,2013-08-03 15:53:00,
2013-08-03 11:58:00,78.8,48.0,30.07,North,0,2.0,7.0,34,-99.99,,,2.36,meteohub,2013-08-03 15:58:00,
2013-08-03 12:03:00,77.9,45.7,30.08,NW,315,5.0,5.0,32,-99.99,,,2.36,meteohub,2013-08-03 16:03:00,
2013-08-03 12:08:00,78.6,47.8,30.07,NW,315,2.0,5.0,34,-99.99,,,2.36,meteohub,2013-08-03 16:08:00,
2013-08-03 12:13:00,79.3,48.6,30.06,NW,315,2.0,5.0,34,-99.99,,,2.36,meteohub,2013-08-03 16:13:00,
2013-08-03 12:17:00,79.7,49.6,30.06,NW,315,2.0,5.0,35,-99.99,,,2.36,meteohub,2013-08-03 16:17:00,
2013-08-03 12:23:00,79.9,49.1,30.06,North,0,4.0,5.0,34,-99.99,,,2.36,meteohub,2013-08-03 16:23:00,
2013-08-03 12:28:00,79.9,49.1,30.03,NW,315,3.0,4.0,34,-99.99,,,2.36,meteohub,2013-08-03 16:28:00,
2013-08-03 12:33:00,79.5,48.7,30.03,NNW,338,2.0,6.0,34,-99.99,,,2.36,meteohub,2013-08-03 16:33:00,
2013-08-03 12:38:00,80.1,48.4,30.03,NNW,338,1.0,6.0,33,-99.99,,,2.36,meteohub,2013-08-03 16:38:00,
2013-08-03 12:43:00,80.4,48.7,30.06,WNW,292,3.0,6.0,33,-99.99,,,2.36,meteohub,2013-08-03 16:43:00,
2013-08-03 12:48:00,80.6,47.1,30.06,NW,315,4.0,6.0,31,-99.99,,,2.36,meteohub,2013-08-03 16:48:00,
2013-08-03 12:53:00,79.3,46.0,30.06,NW,315,3.0,6.0,31,-99.99,,,2.36,meteohub,2013-08-03 16:53:00,
2013-08-03 12:58:00,79.9,47.5,30.03,NNW,338,4.0,5.0,32,-99.99,,,2.36,meteohub,2013-08-03 16:58:00,
2013-08-03 13:03:00,80.4,48.7,30.02,NW,315,3.0,5.0,33,-99.99,,,2.36,meteohub,2013-08-03 17:03:00,
2013-08-03 13:08:00,80.1,47.5,30.03,WNW,292,3.0,4.0,32,-99.99,,,2.36,meteohub,2013-08-03 17:08:00,
2013-08-03 13:13:00,81.1,47.7,30.02,WNW,292,2.0,4.0,31,-99.99,,,2.36,meteohub,2013-08-03 17:13:00,
2013-08-03 13:18:00,81.7,48.9,30.01,WNW,292,4.0,4.0,32,-99.99,,,2.36,meteohub,2013-08-03 17:18:00,
2013-08-03 13:23:00,81.7,48.9,30.01,WNW,292,3.0,4.0,32,-99.99,,,2.36,meteohub,2013-08-03 17:23:00,
2013-08-03 13:28:00,81.9,49.1,30.01,WNW,292,2.0,4.0,32,-99.99,,,2.36,meteohub,2013-08-03 17:28:00,
2013-08-03 13:33:00,81.5,49.6,30.02,West,270,0.0,4.0,33,-99.99,,,2.36,meteohub,2013-08-03 17:33:00,
2013-08-03 13:38:00,81.9,50.0,30.01,NW,315,2.0,4.0,33,-99.99,,,2.36,meteohub,2013-08-03 17:38:00,
2013-08-03 13:43:00,82.0,50.2,30.01,NNE,22,2.0,4.0,33,-99.99,,,2.36,meteohub,2013-08-03 17:43:00,
2013-08-03 13:48:00,81.5,48.7,30.02,NNE,22,2.0,4.0,32,-99.99,,,2.36,meteohub,2013-08-03 17:48:00,
2013-08-03 13:53:00,81.9,50.0,30.01,WNW,292,3.0,4.0,33,-99.99,,,2.36,meteohub,2013-08-03 17:53:00,
2013-08-03 13:58:00,81.9,49.1,30.05,WNW,292,4.0,4.0,32,-99.99,,,2.36,meteohub,2013-08-03 17:58:00,
2013-08-03 14:03:00,81.7,48.9,30.05,WSW,248,1.0,4.0,32,-99.99,,,2.36,meteohub,2013-08-03 18:03:00,
2013-08-03 14:08:00,81.7,49.8,30.05,NW,315,3.0,4.0,33,-99.99,,,2.36,meteohub,2013-08-03 18:08:00,
2013-08-03 14:13:00,80.2,47.7,30.06,WNW,292,2.0,4.0,32,-99.99,,,2.36,meteohub,2013-08-03 18:13:00,
2013-08-03 14:18:00,78.8,48.0,30.07,WSW,248,2.0,3.0,34,-99.99,,,2.36,meteohub,2013-08-03 18:18:00,
2013-08-03 14:23:00,79.3,50.0,30.06,WSW,248,0.0,4.0,36,-99.99,,,2.36,meteohub,2013-08-03 18:23:00,
2013-08-03 14:28:00,80.6,50.4,30.02,WNW,292,1.0,4.0,35,-99.99,,,2.36,meteohub,2013-08-03 18:28:00,
2013-08-03 14:33:00,81.5,50.4,30.02,ESE,112,2.0,4.0,34,-99.99,,,2.36,meteohub,2013-08-03 18:33:00,
2013-08-03 14:38:00,82.4,52.0,30.01,ESE,112,0.0,4.0,35,-99.99,,,2.36,meteohub,2013-08-03 18:38:00,
2013-08-03 14:43:00,82.6,50.5,30.01,South,180,0.0,4.0,33,-99.99,,,2.36,meteohub,2013-08-03 18:43:00,
2013-08-03 14:48:00,81.5,49.6,30.02,South,180,1.0,4.0,33,-99.99,,,2.36,meteohub,2013-08-03 18:48:00,
2013-08-03 14:53:00,80.2,50.2,30.03,SSW,202,0.0,4.0,35,-99.99,,,2.36,meteohub,2013-08-03 18:53:00,
2013-08-03 14:58:00,79.0,49.1,30.04,ESE,112,4.0,6.0,35,-99.99,,,2.36,meteohub,2013-08-03 18:58:00,
2013-08-03 15:04:00,78.3,48.4,30.04,North,0,2.0,6.0,35,-99.99,,,2.36,meteohub,2013-08-03 19:04:00,
2013-08-03 15:09:00,77.9,49.5,30.04,NW,315,2.0,6.0,37,-99.99,,,2.36,meteohub,2013-08-03 19:09:00,
2013-08-03 15:14:00,77.2,48.2,30.05,NW,315,3.0,4.0,36,-99.99,,,2.36,meteohub,2013-08-03 19:14:00,
2013-08-03 15:19:00,78.6,48.7,30.04,West,270,2.0,4.0,35,-99.99,,,2.36,meteohub,2013-08-03 19:19:00,
2013-08-03 15:24:00,79.9,49.8,30.03,NW,315,3.0,5.0,35,-99.99,,,2.36,meteohub,2013-08-03 19:24:00,
2013-08-03 15:29:00,80.1,47.5,30.03,WNW,292,3.0,5.0,32,-99.99,,,2.36,meteohub,2013-08-03 19:29:00,
2013-08-03 15:33:00,81.0,49.1,30.02,WNW,292,1.0,5.0,33,-99.99,,,2.36,meteohub,2013-08-03 19:33:00,
2013-08-03 15:39:00,81.3,48.7,30.02,WNW,292,2.0,4.0,32,-99.99,,,2.36,meteohub,2013-08-03 19:39:00,
2013-08-03 15:44:00,81.5,48.0,30.02,NNW,338,2.0,6.0,31,-99.99,,,2.36,meteohub,2013-08-03 19:44:00,
2013-08-03 15:49:00,81.0,47.5,30.02,WNW,292,3.0,6.0,31,-99.99,,,2.36,meteohub,2013-08-03 19:49:00,
2013-08-03 15:54:00,80.2,46.9,30.03,NNW,338,5.0,6.0,31,-99.99,,,2.36,meteohub,2013-08-03 19:54:00,
2013-08-03 15:59:00,80.4,47.8,30.02,WNW,292,2.0,5.0,32,-99.99,,,2.36,meteohub,2013-08-03 19:59:00,
2013-08-03 16:04:00,80.1,48.4,30.03,NW,315,1.0,5.0,33,-99.99,,,2.36,meteohub,2013-08-03 20:04:00,
2013-08-03 16:09:00,79.9,48.2,30.03,WNW,292,4.0,5.0,33,-99.99,,,2.36,meteohub,2013-08-03 20:09:00,
2013-08-03 16:14:00,79.7,47.3,30.03,WNW,292,4.0,4.0,32,-99.99,,,2.36,meteohub,2013-08-03 20:14:00,
2013-08-03 16:19:00,79.3,46.9,30.03,NW,315,2.0,4.0,32,-99.99,,,2.36,meteohub,2013-08-03 20:19:00,
2013-08-03 16:24:00,78.6,45.5,30.04,NNW,338,3.0,4.0,31,-99.99,,,2.36,meteohub,2013-08-03 20:24:00,
2013-08-03 16:29:00,77.9,46.6,30.04,NE,45,4.0,5.0,33,-99.99,,,2.36,meteohub,2013-08-03 20:29:00,
2013-08-03 16:34:00,77.0,45.0,30.05,NW,315,3.0,5.0,32,-99.99,,,2.36,meteohub,2013-08-03 20:34:00,
2013-08-03 16:39:00,76.1,45.7,30.06,NE,45,2.0,5.0,34,-99.99,,,2.36,meteohub,2013-08-03 20:39:00,
2013-08-03 16:44:00,75.9,47.1,30.06,NNE,22,2.0,5.0,36,-99.99,,,2.36,meteohub,2013-08-03 20:44:00,
2013-08-03 16:49:00,75.4,46.6,30.06,SW,225,2.0,6.0,36,-99.99,,,2.36,meteohub,2013-08-03 20:49:00,
2013-08-03 16:54:00,75.4,47.3,30.06,NNW,338,2.0,6.0,37,-99.99,,,2.36,meteohub,2013-08-03 20:54:00,
2013-08-03 16:59:00,74.8,47.5,30.06,WNW,292,3.0,6.0,38,-99.99,,,2.36,meteohub,2013-08-03 20:59:00,
2013-08-03 17:04:00,74.7,47.3,30.06,WNW,292,2.0,4.0,38,-99.99,,,2.36,meteohub,2013-08-03 21:04:00,
2013-08-03 17:09:00,74.5,49.3,30.07,NW,315,4.0,4.0,41,-99.99,,,2.36,meteohub,2013-08-03 21:09:00,
2013-08-03 17:14:00,73.9,48.7,30.07,WNW,292,3.0,4.0,41,-99.99,,,2.36,meteohub,2013-08-03 21:14:00,
2013-08-03 17:19:00,73.0,47.3,30.08,WNW,292,3.0,4.0,40,-99.99,,,2.36,meteohub,2013-08-03 21:19:00,
2013-08-03 17:24:00,72.9,48.4,30.08,East,90,3.0,4.0,42,-99.99,,,2.36,meteohub,2013-08-03 21:24:00,
2013-08-03 17:29:00,72.5,49.3,30.08,North,0,1.0,4.0,44,-99.99,,,2.36,meteohub,2013-08-03 21:29:00,
2013-08-03 17:34:00,72.7,49.5,30.08,WNW,292,1.0,4.0,44,-99.99,,,2.36,meteohub,2013-08-03 21:34:00,
2013-08-03 17:39:00,73.0,50.5,30.08,WNW,292,2.0,4.0,45,-99.99,,,2.36,meteohub,2013-08-03 21:39:00,
2013-08-03 17:44:00,72.9,50.4,30.08,WNW,292,2.0,3.0,45,-99.99,,,2.36,meteohub,2013-08-03 21:44:00,
2013-08-03 17:49:00,72.7,49.5,30.08,North,-999,-999.0,3.0,44,0.00,,,0.00,meteohub,2013-08-03 21:49:00,
2013-08-03 17:54:00,72.3,49.8,30.08,WNW,292,2.0,3.0,45,0.04,,,0.04,meteohub,2013-08-03 21:54:00,
2013-08-03 17:59:00,72.1,50.2,30.05,NW,315,3.0,3.0,46,0.04,,,0.04,meteohub,2013-08-03 21:59:00,
2013-08-03 18:04:00,71.8,49.8,30.05,NW,315,4.0,4.0,46,0.04,,,0.04,meteohub,2013-08-03 22:04:00,
2013-08-03 18:09:00,71.6,50.4,30.06,WNW,292,4.0,4.0,47,0.04,,,0.04,meteohub,2013-08-03 22:09:00,
2013-08-03 18:14:00,71.4,50.7,30.06,WNW,292,3.0,4.0,48,0.04,,,0.04,meteohub,2013-08-03 22:14:00,
2013-08-03 18:19:00,71.1,49.8,30.06,NNE,22,4.0,4.0,47,0.04,,,0.04,meteohub,2013-08-03 22:19:00,
2013-08-03 18:24:00,70.9,51.3,30.06,WNW,292,2.0,4.0,50,0.04,,,0.04,meteohub,2013-08-03 22:24:00,
2013-08-03 18:29:00,70.5,51.1,30.06,NNW,338,2.0,4.0,50,0.04,,,0.04,meteohub,2013-08-03 22:29:00,
2013-08-03 18:34:00,70.2,50.7,30.06,WNW,292,3.0,4.0,50,0.04,,,0.04,meteohub,2013-08-03 22:34:00,
2013-08-03 18:39:00,69.8,50.4,30.07,WNW,292,1.0,4.0,50,0.04,,,0.04,meteohub,2013-08-03 22:39:00,
2013-08-03 18:44:00,69.6,50.7,30.07,NNW,338,3.0,4.0,51,0.04,,,0.04,meteohub,2013-08-03 22:44:00,
2013-08-03 18:49:00,69.6,51.3,30.07,NNE,22,3.0,4.0,52,0.00,,,0.04,meteohub,2013-08-03 22:49:00,
2013-08-03 18:54:00,69.4,52.5,30.07,WNW,292,3.0,4.0,55,0.00,,,0.04,meteohub,2013-08-03 22:54:00,
2013-08-03 19:00:00,69.3,52.3,30.07,North,-999,-999.0,4.0,55,0.00,,,0.04,meteohub,2013-08-03 23:00:00,
2013-08-03 19:04:00,69.1,52.2,30.07,North,-999,-999.0,4.0,55,0.00,,,0.04,meteohub,2013-08-03 23:04:00,
2013-08-03 19:10:00,68.9,52.2,30.08,North,-999,-999.0,3.0,55,0.00,,,0.04,meteohub,2013-08-03 23:10:00,
2013-08-03 19:14:00,68.7,52.0,30.08,North,-999,-999.0,-999.0,55,0.00,,,0.04,meteohub,2013-08-03 23:14:00,
2013-08-03 19:19:00,68.4,51.6,30.08,North,-999,-999.0,-999.0,55,0.00,,,0.04,meteohub,2013-08-03 23:19:00,
2013-08-03 19:25:00,68.2,52.0,30.08,North,-999,-999.0,-999.0,56,-99.99,,,0.04,meteohub,2013-08-03 23:25:00,
2013-08-03 19:29:00,68.2,52.3,30.08,North,-999,-999.0,-999.0,57,-99.99,,,0.04,meteohub,2013-08-03 23:29:00,
2013-08-03 19:35:00,68.0,52.7,30.08,North,-999,-999.0,-999.0,58,-99.99,,,0.04,meteohub,2013-08-03 23:35:00,
2013-08-03 19:39:00,67.8,52.5,30.08,NW,315,2.0,-999.0,58,-99.99,,,0.04,meteohub,2013-08-03 23:39:00,
2013-08-03 19:44:00,67.8,52.5,30.08,WNW,292,2.0,3.0,58,-99.99,,,0.04,meteohub,2013-08-03 23:44:00,
2013-08-03 19:50:00,67.8,53.1,30.08,WNW,292,2.0,3.0,59,-99.99,,,0.04,meteohub,2013-08-03 23:50:00,
2013-08-03 19:55:00,67.6,52.9,30.09,NW,315,2.0,4.0,59,-99.99,,,0.04,meteohub,2013-08-03 23:55:00,
2013-08-03 19:59:00,67.5,52.7,30.09,NW,315,4.0,4.0,59,-99.99,,,0.04,meteohub,2013-08-03 23:59:00,
2013-08-03 20:05:00,67.3,52.9,30.09,North,0,3.0,4.0,60,-99.99,,,0.04,meteohub,2013-08-04 00:05:00,
2013-08-03 20:10:00,67.1,53.2,30.09,WNW,292,1.0,4.0,61,-99.99,,,0.04,meteohub,2013-08-04 00:10:00,
2013-08-03 20:15:00,66.9,53.4,30.09,NW,315,3.0,3.0,62,-99.99,,,0.04,meteohub,2013-08-04 00:15:00,
2013-08-03 20:20:00,66.7,53.2,30.09,WNW,292,2.0,3.0,62,-99.99,,,0.04,meteohub,2013-08-04 00:20:00,
2013-08-03 20:24:00,66.6,53.6,30.09,WNW,292,3.0,3.0,63,-99.99,,,0.04,meteohub,2013-08-04 00:24:00,
2013-08-03 20:30:00,66.4,53.8,30.09,NNE,22,4.0,4.0,64,-99.99,,,0.04,meteohub,2013-08-04 00:30:00,
2013-08-03 20:35:00,66.4,54.3,30.09,NW,315,2.0,4.0,65,-99.99,,,0.04,meteohub,2013-08-04 00:35:00,
2013-08-03 20:40:00,66.4,54.3,30.09,WNW,292,0.0,4.0,65,-99.99,,,0.04,meteohub,2013-08-04 00:40:00,
2013-08-03 20:45:00,66.2,54.1,30.09,NW,315,2.0,4.0,65,-99.99,,,0.04,meteohub,2013-08-04 00:45:00,
2013-08-03 20:50:00,66.2,54.1,30.09,WNW,292,0.0,4.0,65,-99.99,,,0.04,meteohub,2013-08-04 00:50:00,
2013-08-03 20:55:00,66.0,54.3,30.10,NNW,338,3.0,3.0,66,-99.99,,,0.04,meteohub,2013-08-04 00:55:00,
2013-08-03 21:00:00,66.0,54.7,30.10,WSW,248,2.0,3.0,67,-99.99,,,0.04,meteohub,2013-08-04 01:00:00,
2013-08-03 21:05:00,66.0,55.2,30.10,WSW,248,0.0,3.0,68,-99.99,,,0.04,meteohub,2013-08-04 01:05:00,
2013-08-03 21:10:00,66.0,54.7,30.10,NW,315,1.0,3.0,67,-99.99,,,0.04,meteohub,2013-08-04 01:10:00,
2013-08-03 21:15:00,65.8,55.0,30.10,WNW,292,0.0,3.0,68,-99.99,,,0.04,meteohub,2013-08-04 01:15:00,
2013-08-03 21:20:00,65.8,55.0,30.10,West,270,0.0,1.0,68,-99.99,,,0.04,meteohub,2013-08-04 01:20:00,
2013-08-03 21:25:00,65.8,55.0,30.10,WSW,248,0.0,1.0,68,-99.99,,,0.04,meteohub,2013-08-04 01:25:00,
2013-08-03 21:30:00,65.8,55.0,30.13,SW,225,0.0,1.0,68,-99.99,,,0.04,meteohub,2013-08-04 01:30:00,
2013-08-03 21:35:00,65.7,55.2,30.13,ENE,68,1.0,3.0,69,-99.99,,,0.04,meteohub,2013-08-04 01:35:00,
2013-08-03 21:40:00,65.5,55.0,30.14,ENE,68,0.0,3.0,69,-99.99,,,0.04,meteohub,2013-08-04 01:40:00,
2013-08-03 21:45:00,65.5,55.0,30.14,NNW,338,1.0,3.0,69,-99.99,,,0.04,meteohub,2013-08-04 01:45:00,
2013-08-03 21:50:00,65.5,55.0,30.14,NW,315,0.0,3.0,69,-99.99,,,0.04,meteohub,2013-08-04 01:50:00,
2013-08-03 21:55:00,65.5,55.4,30.14,WNW,292,2.0,3.0,70,-99.99,,,0.04,meteohub,2013-08-04 01:55:00,
2013-08-03 22:00:00,65.5,55.8,30.14,NNE,22,2.0,3.0,71,-99.99,,,0.04,meteohub,2013-08-04 02:00:00,
2013-08-03 22:05:00,65.7,55.6,30.13,WNW,292,0.0,3.0,70,-99.99,,,0.04,meteohub,2013-08-04 02:05:00,
2013-08-03 22:10:00,65.5,55.4,30.14,NW,315,1.0,3.0,70,-99.99,,,0.04,meteohub,2013-08-04 02:10:00,
2013-08-03 22:15:00,65.5,55.4,30.14,WNW,292,0.0,2.0,70,-99.99,,,0.04,meteohub,2013-08-04 02:15:00,
2013-08-03 22:20:00,65.5,55.4,30.14,SSE,158,1.0,2.0,70,-99.99,,,0.04,meteohub,2013-08-04 02:20:00,
2013-08-03 22:25:00,65.8,56.1,30.13,ESE,112,1.0,3.0,71,-99.99,,,0.04,meteohub,2013-08-04 02:25:00,
2013-08-03 22:30:00,65.7,55.6,30.13,NNW,338,2.0,3.0,70,-99.99,,,0.04,meteohub,2013-08-04 02:30:00,
2013-08-03 22:35:00,65.7,55.6,30.13,NNW,338,3.0,3.0,70,-99.99,,,0.04,meteohub,2013-08-04 02:35:00,
2013-08-03 22:40:00,65.7,55.6,30.13,NNW,338,4.0,4.0,70,-99.99,,,0.04,meteohub,2013-08-04 02:40:00,
2013-08-03 22:45:00,65.8,56.1,30.13,WNW,292,2.0,5.0,71,-99.99,,,0.04,meteohub,2013-08-04 02:45:00,
2013-08-03 22:50:00,65.8,56.1,30.13,NNE,22,1.0,5.0,71,-99.99,,,0.04,meteohub,2013-08-04 02:50:00,
2013-08-03 22:55:00,65.7,55.6,30.13,NE,45,2.0,5.0,70,-99.99,,,0.04,meteohub,2013-08-04 02:55:00,
2013-08-03 23:00:00,65.7,55.9,30.13,WNW,292,1.0,4.0,71,-99.99,,,0.04,meteohub,2013-08-04 03:00:00,
2013-08-03 23:05:00,65.7,55.9,30.13,North,0,3.0,4.0,71,-99.99,,,0.04,meteohub,2013-08-04 03:05:00,
2013-08-03 23:10:00,65.8,56.1,30.13,NNE,22,3.0,4.0,71,-99.99,,,0.04,meteohub,2013-08-04 03:10:00,
2013-08-03 23:15:00,65.8,56.5,30.13,NNW,338,3.0,4.0,72,-99.99,,,0.04,meteohub,2013-08-04 03:15:00,
2013-08-03 23:20:00,66.0,56.7,30.13,WNW,292,2.0,6.0,72,-99.99,,,0.04,meteohub,2013-08-04 03:20:00,
2013-08-03 23:26:00,66.2,56.5,30.13,South,180,0.0,6.0,71,-99.99,,,0.04,meteohub,2013-08-04 03:26:00,
2013-08-03 23:31:00,66.2,56.5,30.13,ESE,112,1.0,6.0,71,-99.99,,,0.04,meteohub,2013-08-04 03:31:00,
2013-08-03 23:36:00,66.0,56.3,30.13,WNW,292,0.0,4.0,71,-99.99,,,0.04,meteohub,2013-08-04 03:36:00,
2013-08-03 23:40:00,66.0,55.9,30.13,East,90,0.0,3.0,70,-99.99,,,0.04,meteohub,2013-08-04 03:40:00,
2013-08-03 23:46:00,66.0,55.9,30.13,SSW,202,0.0,3.0,70,-99.99,,,0.04,meteohub,2013-08-04 03:46:00,
2013-08-03 23:51:00,66.0,55.9,30.13,ENE,68,3.0,3.0,70,-99.99,,,0.04,meteohub,2013-08-04 03:51:00,
2013-08-03 23:55:00,66.2,56.1,30.13,SW,225,0.0,3.0,70,-99.99,,,0.04,meteohub,2013-08-04 03:55:00,